Weather History for Olathe New Century, KS

Change the Weather History Date:

Sunday, February 24, 2013

  Actual Average Record
Temperature  
Mean Temperature 29 °F -  
Max Temperature 43 °F 43 °F 73 °F (2002)
Min Temperature 15 °F 25 °F 1 °F (2003)
Degree Days  
Heating Degree Days 36    
Moisture  
Dew Point 21 °F    
Average Humidity 68    
Maximum Humidity 88    
Minimum Humidity 49    
Precipitation  
Precipitation 0.00 in - - ()
Sea Level Pressure  
Sea Level Pressure 29.99 in    
Wind  
Wind Speed 7 mph (ESE)    
Max Wind Speed 12 mph    
Max Gust Speed -    
Visibility 9 miles    
Events      
Averages and records for this station are not official NWS values.
T = Trace of Precipitation, MM = Missing Value Source: NWS Daily Summary

Daily Weather History Graph

Daily Weather History Graph

Search for Another Location

Airport:

Trip Planner

Search our weather history database for the weather conditions in past years. The results will help you decide how hot, cold, wet, or windy it might be!

Date:

Astronomy

Feb. 24, 2013 Rise Set
Actual Time 6:58 AM CST 6:07 PM CST
Civil Twilight 6:31 AM CST 6:34 PM CST
Nautical Twilight 6:00 AM CST 7:05 PM CST
Astronomical Twilight 5:30 AM CST 7:36 PM CST
Moon 5:19 PM CST (2/24) 5:56 AM CST (2/24)
Length of Visible Light 12h 02m
Length of Day
11h 08m
Waxing Gibbous, 99% of the Moon is Illuminated
Feb 24
Waxing Gibbous
Feb 25
Full
Mar 4
Last Quarter
Mar 11
New
Mar 19
First Quarter

Hourly Weather History & Observations

Time (CST) Temp. Windchill Dew Point Humidity Pressure Visibility Wind Dir Wind Speed Gust Speed Precip Events Conditions
12:53 AM 18.0 °F 9.8 °F 14.0 °F 84% 30.01 in 9.0 mi South 5.8 mph - N/A   Clear
1:53 AM 15.1 °F 9.4 °F 12.0 °F 88% 30.02 in 8.0 mi South 3.5 mph - N/A   Clear
2:53 AM 16.0 °F 7.4 °F 12.9 °F 88% 30.01 in 9.0 mi SSE 5.8 mph - N/A   Clear
3:53 AM 16.0 °F 8.8 °F 12.0 °F 84% 30.00 in 6.0 mi SSE 4.6 mph - N/A   Clear
4:53 AM 19.0 °F 11.1 °F 15.1 °F 85% 30.00 in 9.0 mi SE 5.8 mph - N/A   Clear
5:53 AM 23.0 °F 13.1 °F 18.0 °F 81% 30.01 in 9.0 mi ESE 9.2 mph - N/A   Clear
6:53 AM 21.0 °F 10.6 °F 16.0 °F 81% 30.01 in 8.0 mi ESE 9.2 mph - N/A   Clear
7:53 AM 19.9 °F 12.1 °F 15.1 °F 81% 30.03 in 7.0 mi SE 5.8 mph - N/A   Clear
8:53 AM 26.1 °F 18.4 °F 19.0 °F 75% 30.05 in 8.0 mi SE 6.9 mph - N/A   Clear
9:53 AM 32.0 °F 23.0 °F 21.0 °F 64% 30.04 in 10.0 mi ESE 11.5 mph - N/A   Clear
10:53 AM 35.1 °F 29.3 °F 21.9 °F 59% 30.04 in 10.0 mi ESE 6.9 mph - N/A   Clear
11:53 AM 37.0 °F 31.6 °F 23.0 °F 57% 30.04 in 10.0 mi ESE 6.9 mph - N/A   Clear
12:53 PM 41.0 °F 37.1 °F 24.1 °F 51% 30.01 in 10.0 mi ESE 5.8 mph - N/A   Clear
1:53 PM 43.0 °F 38.8 °F 25.0 °F 49% 29.97 in 10.0 mi East 6.9 mph - N/A   Clear
2:53 PM 43.0 °F 37.7 °F 25.0 °F 49% 29.94 in 10.0 mi East 9.2 mph - N/A   Clear
3:53 PM 43.0 °F 38.2 °F 26.1 °F 51% 29.93 in 10.0 mi East 8.1 mph - N/A   Clear
4:53 PM 42.1 °F 37.7 °F 26.1 °F 53% 29.92 in 10.0 mi East 6.9 mph - N/A   Clear
5:53 PM 41.0 °F 35.8 °F 25.0 °F 53% 29.94 in 10.0 mi ENE 8.1 mph - N/A   Clear
6:53 PM 37.9 °F 31.5 °F 26.1 °F 62% 29.96 in 10.0 mi NE 9.2 mph - N/A   Clear
7:53 PM 36.0 °F 28.5 °F 25.0 °F 64% 29.97 in 10.0 mi NE 10.4 mph - N/A   Clear
8:53 PM 34.0 °F 26.6 °F 24.1 °F 67% 29.98 in 10.0 mi NE 9.2 mph - N/A   Clear
9:53 PM 35.1 °F 29.3 °F 24.1 °F 64% 29.99 in 10.0 mi ENE 6.9 mph - N/A   Overcast
10:53 PM 35.1 °F 26.9 °F 25.0 °F 67% 29.98 in 10.0 mi NE 11.5 mph - N/A   Overcast
11:53 PM 34.0 °F 26.6 °F 24.1 °F 67% 29.97 in 10.0 mi ENE 9.2 mph - N/A   Mostly Cloudy